Location: Eimen
(51.8766°N, 9.7806°E)
Time: 11:11:52
(UTC+00:00)

Cosmos 1953 - Pass Details

Date: 23 May 2024
Orbit: 509 x 531 km, 82.5° (Epoch: 23 June)

Event Time Altitude Azimuth Distance (km) Brightness Sun altitude
Rises 00:58:38 0° 345° (NNW) 2,689 6.7 -14.2°
Reaches altitude 10° 01:00:49 10° 341° (NNW) 1,791 5.6 -14.1°
Maximum altitude 01:04:39 53° 265° (W) 660 2.5 -13.8°
Enters shadow 01:06:48 23° 197° (SSW) 1,143 3.3 -13.7°
